CPA124 RCTP-RPLL

Flight info

Callsign CPA124
Flight time N/A
Altitude 38000
Route TINHO1C/05L TINHO B591 GID Q11 POTIB M646 LAO/N0449F370 B462 CAB CAB1D
Aircraft A320/M-SDE3FGHIRWY/LB1

Departure

Time 2026-05-06 13:06
Airport Taiwan Taoyuan International Airport (RCTP)

Arrival

Time N/A
Airport Ninoy Aquino International Airport (RPLL)
Time Latitude Longitude Altitude Speed Heading
2026-05-06 12:49 25.07799 121.22925 128 ft 0 kts 139°
2026-05-06 12:51 25.07801 121.22924 101 ft 2 kts 139°
2026-05-06 12:51 25.07813 121.22911 101 ft 2 kts 139°
2026-05-06 12:51 25.07826 121.22899 100 ft 2 kts 139°
2026-05-06 12:52 25.07839 121.22887 100 ft 2 kts 139°
2026-05-06 12:52 25.07852 121.22876 98 ft 2 kts 159°
2026-05-06 12:52 25.07867 121.22870 99 ft 2 kts 172°
2026-05-06 12:52 25.07883 121.22869 100 ft 2 kts 185°
2026-05-06 12:53 25.07898 121.22873 100 ft 2 kts 216°
2026-05-06 12:53 25.07913 121.22880 100 ft 2 kts 214°
2026-05-06 12:53 25.07916 121.22882 100 ft 0 kts 230°
2026-05-06 12:56 25.07915 121.22881 100 ft 1 kts 230°
2026-05-06 12:56 25.07900 121.22861 99 ft 5 kts 230°
2026-05-06 12:56 25.07872 121.22825 101 ft 7 kts 229°
2026-05-06 12:57 25.07836 121.22779 100 ft 9 kts 229°
2026-05-06 12:57 25.07796 121.22728 101 ft 8 kts 229°
2026-05-06 12:57 25.07783 121.22712 100 ft 4 kts 229°
2026-05-06 12:57 25.07765 121.22675 101 ft 6 kts 262°
2026-05-06 12:58 25.07790 121.22630 101 ft 8 kts 317°
2026-05-06 12:58 25.07798 121.22570 101 ft 9 kts 244°
2026-05-06 12:58 25.07757 121.22514 101 ft 9 kts 228°
2026-05-06 12:58 25.07710 121.22459 101 ft 11 kts 230°
2026-05-06 12:59 25.07659 121.22388 101 ft 13 kts 230°
2026-05-06 12:59 25.07609 121.22326 101 ft 10 kts 228°
2026-05-06 12:59 25.07560 121.22262 100 ft 10 kts 230°
2026-05-06 12:59 25.07514 121.22202 101 ft 11 kts 231°
2026-05-06 13:00 25.07458 121.22132 100 ft 13 kts 228°
2026-05-06 13:00 25.07395 121.22053 101 ft 15 kts 225°
2026-05-06 13:00 25.07340 121.21985 99 ft 11 kts 230°
2026-05-06 13:00 25.07288 121.21916 101 ft 13 kts 229°
2026-05-06 13:01 25.07250 121.21867 99 ft 9 kts 230°
2026-05-06 13:01 25.07205 121.21812 101 ft 9 kts 227°
2026-05-06 13:01 25.07178 121.21761 101 ft 8 kts 261°
2026-05-06 13:01 25.07206 121.21710 100 ft 9 kts 321°
2026-05-06 13:02 25.07233 121.21684 102 ft 0 kts 319°
2026-05-06 13:03 25.07290 121.21641 102 ft 6 kts 344°
2026-05-06 13:03 25.07336 121.21656 102 ft 9 kts 38°
2026-05-06 13:04 25.07352 121.21677 101 ft 0 kts 50°
2026-05-06 13:04 25.07357 121.21684 101 ft 5 kts 50°
2026-05-06 13:05 25.07433 121.21782 99 ft 49 kts 50°
2026-05-06 13:05 25.07506 121.21876 101 ft 67 kts 49°
2026-05-06 13:05 25.07948 121.22432 101 ft 122 kts 49°
2026-05-06 13:05 25.08596 121.23247 193 ft 154 kts 47°
2026-05-06 13:06 25.09337 121.24113 627 ft 164 kts 46°
2026-05-06 13:06 25.10160 121.25114 855 ft 187 kts 51°
2026-05-06 13:06 25.11052 121.26277 1121 ft 210 kts 52°
2026-05-06 13:06 25.12044 121.27582 1477 ft 234 kts 52°
2026-05-06 13:07 25.12903 121.28710 1864 ft 249 kts 52°